THORAD AGENA D DEB, 19250

Orbit data source: Space-Track

THORAD AGENA D DEB, 19250 is space debris in SSO originally from a launch on Wed, 08 Apr 1970 UTC launched from the Air Force Western Test Range (AFWTR). Debris objects in space refer to the collection of defunct objects orbiting the Earth. Examples of debris include non-operational satellites, rocket bodies, and fragments generated from explosions, collisions, or faulty payload assembly.

Loading next visibility...
Identifier
19250, 1970-025PU
Orbit
SSO
Country
Flag of USUS
Related business
Manufacturer
Unknown
Mission
Spacecraft
Bus & Motor
Unknown
Mass
Unknown
Launch date (UTC)
1970-04-08 (56 years ago)
Launch vehicle
Unknown
Launch site
Air Force Western Test Range (AFWTR)
Object type
Payload
Rocket body
Debris
Shape & HBR
Unknown shape, 0.1 m
Radar Cross Section
Medium (>0.1 m² and <1 m²)

Expand to show TLE details & history
Last TLE update: 2 days ago

TLE from 2 days ago
0 THORAD AGENA D DEB
1 19250U 70025PU  26171.27490270  .00001769  00000-0  15429-2 0  9995
2 19250  99.4800 279.9868 0166687 107.9386 281.3666 13.81075312885752
Epoch: 2026-06-20T06:35Z
TLE epoch observation values (Epoch: 2026-06-20T06:35:51.593Z)
Latitude
27.05883°
Longitude
-92.33761°
Altitude
941.167 km
Speed
7.395 km/s
True Right ascension
18h 20m 28s
True Declination
26° 55' 24"
Sunlit
Object was in full shadow at epoch
Visualization orbit readout
Latitude
Unknown
Longitude
Unknown
Altitude
Unknown
Speed
Unknown
Apparent Right ascension
Unknown
Apparent Declination
Unknown
Sunlit
N/A
Visualization observer readout
Local Sidereal Time
23:20:29
Azimuth
Unknown
Elevation
Unknown
Doppler factor
Unknown
Orbital elements
Apogee altitude
1,079.595 km
Perigee altitude
835.05 km
Semi-major axis
7,335.46 km
Eccentricity
0.01667
Inclination
99.48°
RAAN
279.9868°
Arg. of periapsis
107.9386°
True anomaly
279.48659°
Mean anomaly
281.3666°
Eccentric anomaly
280.42733°
Mean motion
3.45463 °/min
Orbital period
104.21 mins
BSTAR
0.0015429
Loading maneuver chart data...
Computing Atmospheric mass density...

Documentation

Showing up to 5 results
|